Location: Alphen aan den Rijn
(52.1277°N, 4.6689°E)
Time: 01:31:03

Envisat - Pass Details

Date: 25 February 2018
Orbit: 764 x 766 km, 98.2° (Epoch: 21 March)

Event Time Altitude Azimuth Distance (km) Brightness Sun altitude
Rises 20:45:42 0° 189° (S) 3,222 6.2 -23.9°
Reaches altitude 10° 20:48:11 10° 198° (SSW) 2,300 5.5 -24.3°
Maximum altitude 20:52:49 36° 264° (W) 1,214 4.5 -24.9°
Drops below altitude 10° 20:57:30 10° 331° (NNW) 2,316 6.1 -25.6°
Sets 21:00:00 0° 340° (NNW) 3,246 6.8 -26.0°
